This is the latest recevied weather packets stored in our database for station/object KB3HLL. If no packets are shown the sender has not sent any weather packets the latest 10 day(s).
| Time | Temp. | Humidity | Pressure | Rain* | Wind** | Luminosity | Snow |
|---|---|---|---|---|---|---|---|
| 1777579281 | 9.44° C | 87% | 1009.4 hPa | 0 mm | - | 104 W/m² | - |
| 1777578980 | 9.44° C | 83% | 1009.3 hPa | 0 mm | - | 95 W/m² | - |
| 1777578678 | 10° C | 83% | 1009.2 hPa | 0 mm | - | 88 W/m² | - |
| 1777578379 | 10° C | 81% | 1009.2 hPa | 0 mm | - | 88 W/m² | - |
| 1777578079 | 10.56° C | 80% | 1009.2 hPa | 0 mm | - | 123 W/m² | - |
| 1777577780 | 10.56° C | 80% | 1009.3 hPa | 0 mm | - | 116 W/m² | - |
| 1777577479 | 10.56° C | 78% | 1009.3 hPa | 0 mm | - | 203 W/m² | - |
| 1777577178 | 10.56° C | 77% | 1009.2 hPa | 0 mm | - | 749 W/m² | - |
| 1777576877 | 10.56° C | 78% | 1009.2 hPa | 0 mm | - | 265 W/m² | - |
| 1777576578 | 10° C | 78% | 1009.2 hPa | 0 mm | - | 389 W/m² | - |
| 1777576278 | 10° C | 79% | 1009.2 hPa | 0 mm | - | 214 W/m² | - |
| 1777575978 | 10.56° C | 79% | 1009.3 hPa | 0 mm | - | 96 W/m² | - |
| 1777575678 | 10.56° C | 78% | 1009.2 hPa | 0 mm | - | 180 W/m² | - |
| 1777575380 | 10.56° C | 79% | 1009.3 hPa | 0 mm | - | 310 W/m² | - |
| 1777575079 | 10.56° C | 79% | 1009.3 hPa | 0 mm | - | 709 W/m² | - |
| 1777574779 | 10.56° C | 79% | 1009.3 hPa | 0 mm | - | 372 W/m² | - |
| 1777574478 | 10.56° C | 79% | 1009.4 hPa | 0 mm | - | 266 W/m² | - |
| 1777574177 | 10.56° C | 77% | 1009.5 hPa | 0 mm | - | 330 W/m² | - |
| 1777573878 | 10° C | 79% | 1009.4 hPa | 0 mm | - | 529 W/m² | - |
| 1777573579 | 10° C | 79% | 1009.5 hPa | 0 mm | - | 391 W/m² | - |
| 1777573280 | 10° C | 79% | 1009.5 hPa | 0 mm | - | 261 W/m² | - |
| 1777572978 | 10° C | 81% | 1009.6 hPa | 0 mm | - | 219 W/m² | - |
| 1777572679 | 10° C | 79% | 1009.5 hPa | 0 mm | - | 317 W/m² | - |
| 1777572378 | 10° C | 79% | 1009.6 hPa | 0 mm | - | 309 W/m² | - |
| 1777572079 | 10° C | 78% | 1009.6 hPa | 0 mm | - | 292 W/m² | - |
* Rain latest hour (hover to see other rain measurements)
** Current wind speed in m/s (hover to see current wind gust speed)